When you browse on this site, cookies collect data to enhance your experience and personalize the content and advertising you see.
Visit our Privacy Policy to learn more. By continuing to use the site, you agree to this use of cookies and data.
  • In Hungary
  • List of Countries
  • For 7 days
  • Water Temperature
  • Satellite Maps
  • Weather Map
  • News
  • Weather Widgets
  • user-avatar
    Login

    Hourly Weather Veroia

    Today, 16 December, Sunday

    Time Temperature Precipitation Wind Pressure Humidity
    00:00 +11°C° 0.1 mm 1 mps 746 mmHg 93%
    01:00 +11°C° 0.1 mm 1 mps 746 mmHg 93%
    02:00 +11°C° 0.1 mm 1 mps 746 mmHg 93%
    03:00 +11°C° 0.1 mm 1 mps 746 mmHg 93%
    04:00 +10°C° 0.1 mm 1 mps 746 mmHg 94%
    05:00 +10°C° 0.1 mm 1 mps 746 mmHg 93%
    06:00 +10°C° 0.1 mm 1 mps 746 mmHg 93%
    07:00 +10°C° 0.1 mm 1 mps 746 mmHg 93%
    08:00 +11°C° 0.1 mm 1 mps 746 mmHg 87%
    09:00 +12°C° 0.1 mm 2 mps 747 mmHg 82%
    10:00 +13°C° 0.1 mm 2 mps 747 mmHg 77%
    11:00 +12°C° 0.1 mm 3 mps 747 mmHg 75%
    12:00 +12°C° 0.1 mm 3 mps 747 mmHg 72%
    13:00 +11°C° 0.1 mm 4 mps 747 mmHg 70%
    14:00 +11°C° 0 mm 4 mps 748 mmHg 71%
    15:00 +10°C° 0 mm 4 mps 748 mmHg 71%
    16:00 +8°C° 0 mm 4 mps 749 mmHg 71%
    17:00 +7°C° 0 mm 4 mps 749 mmHg 72%
    18:00 +6°C° 0 mm 4 mps 750 mmHg 73%
    19:00 +5°C° 0 mm 4 mps 750 mmHg 74%
    20:00 +5°C° 0 mm 3 mps 750 mmHg 74%
    21:00 +4°C° 0 mm 3 mps 751 mmHg 74%
    22:00 +4°C° 0 mm 3 mps 751 mmHg 74%
    23:00 +4°C° 0 mm 3 mps 751 mmHg 74%

    Tomorrow, 17 December, Monday

    Time Temperature Precipitation Wind Pressure Humidity
    00:00 +4°C° 0 mm 3 mps 751 mmHg 74%
    01:00 +3°C° 0 mm 3 mps 751 mmHg 73%
    02:00 +4°C° 0 mm 2 mps 751 mmHg 73%
    03:00 +4°C° 0 mm 2 mps 751 mmHg 72%
    04:00 +4°C° 0 mm 2 mps 751 mmHg 72%
    05:00 +4°C° 0 mm 2 mps 751 mmHg 70%
    06:00 +5°C° 0 mm 2 mps 751 mmHg 68%
    07:00 +5°C° 0 mm 2 mps 751 mmHg 66%
    08:00 +7°C° 0 mm 1 mps 751 mmHg 63%
    09:00 +8°C° 0 mm 1 mps 751 mmHg 59%
    10:00 +9°C° 0 mm 1 mps 751 mmHg 56%
    11:00 +9°C° 0.1 mm 1 mps 750 mmHg 54%
    12:00 +10°C° 0.1 mm 1 mps 750 mmHg 51%
    13:00 +11°C° 0.1 mm 1 mps 749 mmHg 49%
    14:00 +10°C° 0.1 mm 1 mps 749 mmHg 54%
    15:00 +9°C° 0.1 mm 1 mps 749 mmHg 58%
    16:00 +8°C° 0.1 mm 2 mps 749 mmHg 62%
    17:00 +8°C° 0.1 mm 1 mps 749 mmHg 64%
    18:00 +8°C° 0.1 mm 1 mps 749 mmHg 66%
    19:00 +8°C° 0.1 mm 1 mps 749 mmHg 67%
    20:00 +8°C° 0.2 mm 1 mps 749 mmHg 69%
    21:00 +7°C° 0.2 mm 1 mps 749 mmHg 70%
    22:00 +6°C° 0.2 mm 2 mps 749 mmHg 71%
    23:00 +6°C° 0.2 mm 2 mps 749 mmHg 72%

    Day after tomorrow, 18 December, Tuesday

    Time Temperature Precipitation Wind Pressure Humidity
    00:00 +6°C° 0.2 mm 2 mps 749 mmHg 73%
    01:00 +6°C° 0.2 mm 2 mps 749 mmHg 75%
    02:00 +6°C° 1 mm 2 mps 749 mmHg 78%
    03:00 +4°C° 1 mm 3 mps 749 mmHg 81%
    04:00 +4°C° 1 mm 3 mps 749 mmHg 84%
    05:00 +4°C° 1.1 mm 3 mps 749 mmHg 84%
    06:00 +4°C° 1.1 mm 3 mps 750 mmHg 85%
    07:00 +4°C° 1.1 mm 3 mps 750 mmHg 86%
    08:00 +4°C° 1 mm 4 mps 750 mmHg 85%
    09:00 +4°C° 1 mm 4 mps 750 mmHg 84%
    10:00 +4°C° 1 mm 4 mps 751 mmHg 84%
    11:00 +5°C° 0.8 mm 4 mps 751 mmHg 83%
    12:00 +5°C° 0.8 mm 4 mps 751 mmHg 83%
    13:00 +5°C° 0.8 mm 4 mps 750 mmHg 82%
    14:00 +5°C° 0.5 mm 4 mps 751 mmHg 82%
    15:00 +5°C° 0.5 mm 4 mps 751 mmHg 82%
    16:00 +5°C° 0.5 mm 4 mps 752 mmHg 82%
    17:00 +4°C° 0.3 mm 4 mps 752 mmHg 82%
    18:00 +4°C° 0.3 mm 3 mps 753 mmHg 82%
    19:00 +4°C° 0.3 mm 3 mps 753 mmHg 81%
    20:00 +4°C° 0.1 mm 3 mps 754 mmHg 81%
    21:00 +4°C° 0.1 mm 3 mps 754 mmHg 81%
    22:00 +3°C° 0.1 mm 3 mps 754 mmHg 81%
    23:00 +3°C° 0 mm 3 mps 754 mmHg 81%

    19 December, Wednesday

    Time Temperature Precipitation Wind Pressure Humidity
    00:00 +3°C° 0 mm 3 mps 754 mmHg 81%
    01:00 +3°C° 0 mm 3 mps 754 mmHg 81%
    02:00 +2°C° 0 mm 3 mps 754 mmHg 81%
    03:00 +2°C° 0 mm 3 mps 754 mmHg 82%
    04:00 +2°C° 0 mm 3 mps 754 mmHg 82%
    05:00 +3°C° 0 mm 2 mps 754 mmHg 82%
    06:00 +3°C° 0 mm 2 mps 755 mmHg 82%
    07:00 +3°C° 0 mm 2 mps 755 mmHg 82%
    08:00 +4°C° 0 mm 2 mps 755 mmHg 80%
    09:00 +5°C° 0 mm 2 mps 755 mmHg 78%
    10:00 +6°C° 0 mm 2 mps 755 mmHg 76%
    11:00 +7°C° 0 mm 2 mps 755 mmHg 75%
    12:00 +7°C° 0 mm 2 mps 754 mmHg 75%
    13:00 +8°C° 0 mm 2 mps 754 mmHg 74%
    14:00 +7°C° 0 mm 2 mps 754 mmHg 75%
    15:00 +6°C° 0 mm 2 mps 755 mmHg 76%
    16:00 +5°C° 0 mm 2 mps 755 mmHg 78%
    17:00 +5°C° 0 mm 2 mps 755 mmHg 79%
    18:00 +4°C° 0 mm 2 mps 756 mmHg 80%
    19:00 +3°C° 0 mm 2 mps 757 mmHg 81%
    20:00 +3°C° 0 mm 2 mps 757 mmHg 81%
    21:00 +3°C° 0 mm 2 mps 757 mmHg 81%
    22:00 +3°C° 0 mm 2 mps 758 mmHg 80%
    23:00 +3°C° 0 mm 2 mps 758 mmHg 80%

    20 December, Thursday

    Time Temperature Precipitation Wind Pressure Humidity
    00:00 +2°C° 0 mm 2 mps 758 mmHg 80%
    01:00 +3°C° 0 mm 1 mps 758 mmHg 79%
    02:00 +3°C° 0 mm 1 mps 758 mmHg 79%
    03:00 +3°C° 0 mm 1 mps 758 mmHg 79%
    04:00 +3°C° 0 mm 1 mps 758 mmHg 78%
    05:00 +3°C° 0 mm 1 mps 758 mmHg 78%
    06:00 +3°C° 0 mm 1 mps 759 mmHg 79%
    07:00 +3°C° 0 mm 1 mps 759 mmHg 79%
    08:00 +4°C° 0 mm 1 mps 759 mmHg 76%
    09:00 +6°C° 0 mm 1 mps 759 mmHg 74%
    10:00 +7°C° 0 mm 1 mps 759 mmHg 71%
    11:00 +8°C° 0 mm 1 mps 759 mmHg 71%
    12:00 +8°C° 0 mm 1 mps 758 mmHg 71%
    13:00 +9°C° 0 mm 1 mps 758 mmHg 71%
    14:00 +8°C° 0 mm 1 mps 758 mmHg 74%
    15:00 +7°C° 0 mm 1 mps 758 mmHg 77%
    16:00 +7°C° 0 mm 1 mps 758 mmHg 80%
    17:00 +6°C° 0 mm 1 mps 758 mmHg 81%
    18:00 +6°C° 0 mm 1 mps 758 mmHg 83%
    19:00 +6°C° 0 mm 1 mps 759 mmHg 85%
    20:00 +5°C° 0 mm 1 mps 759 mmHg 85%
    21:00 +5°C° 0 mm 1 mps 759 mmHg 86%
    22:00 +5°C° 0 mm 1 mps 759 mmHg 87%
    23:00 +5°C° 0 mm 1 mps 759 mmHg 88%

    21 December, Friday

    Time Temperature Precipitation Wind Pressure Humidity
    00:00 +5°C° 0 mm 1 mps 759 mmHg 88%
    01:00 +5°C° 0 mm 1 mps 759 mmHg 88%
    02:00 +5°C° 0 mm 1 mps 758 mmHg 89%
    03:00 +5°C° 0 mm 1 mps 758 mmHg 90%
    04:00 +5°C° 0 mm 1 mps 758 mmHg 90%
    05:00 +6°C° 0.1 mm 1 mps 758 mmHg 91%
    06:00 +6°C° 0.1 mm 1 mps 758 mmHg 91%
    07:00 +6°C° 0.1 mm 1 mps 758 mmHg 91%
    08:00 +7°C° 0.1 mm 1 mps 758 mmHg 90%
    09:00 +6°C° 0.1 mm 2 mps 758 mmHg 89%
    10:00 +7°C° 0.1 mm 2 mps 758 mmHg 88%
    11:00 +7°C° 0.6 mm 2 mps 757 mmHg 88%
    12:00 +7°C° 0.6 mm 2 mps 757 mmHg 88%
    13:00 +7°C° 0.6 mm 2 mps 756 mmHg 88%
    14:00 +7°C° 1.6 mm 2 mps 756 mmHg 89%
    15:00 +8°C° 1.6 mm 1 mps 756 mmHg 90%
    16:00 +8°C° 1.6 mm 1 mps 756 mmHg 90%
    17:00 +8°C° 1.7 mm 1 mps 757 mmHg 91%
    18:00 +7°C° 1.7 mm 1 mps 757 mmHg 92%
    19:00 +7°C° 1.7 mm 1 mps 757 mmHg 93%
    20:00 +7°C° 1.1 mm 1 mps 757 mmHg 93%
    21:00 +7°C° 1.1 mm 1 mps 757 mmHg 94%
    22:00 +7°C° 1.1 mm 1 mps 757 mmHg 94%
    23:00 +6°C° 0.6 mm 2 mps 757 mmHg 94%
    Show more